Location: Grange Verzio
(44.5000°N, 6.9833°E)
Time: 15:06:21
(UTC+00:00)

NOAA 16 DEB - Visible Passes

Search period start: 23 February 2024 00:00
Search period end: 04 March 2024 00:00
Orbit: 822 x 909 km, 98.9° (Epoch: 23 February)

Date Brightness Start Highest point End Pass type
(mag) Time Alt. Az. Time Alt. Az. Time Alt. Az.
23 Feb ? 19:32:57 49° NE 19:32:57 49° NE 19:37:48 10° N visible
23 Feb ? 21:15:15 22° WNW 21:15:15 22° WNW 21:18:09 10° NW visible
24 Feb ? 19:25:11 45° NE 19:25:11 45° NE 19:30:12 10° N visible
24 Feb ? 21:07:30 25° WNW 21:07:30 25° WNW 21:10:48 10° NW visible
25 Feb ? 19:17:26 40° ENE 19:17:26 40° ENE 19:22:34 10° N visible
25 Feb ? 20:59:44 29° WNW 20:59:44 29° WNW 21:03:25 10° NNW visible
26 Feb ? 19:09:39 35° ENE 19:09:44 35° ENE 19:14:55 10° N visible
26 Feb ? 20:51:58 34° WNW 20:51:58 34° WNW 20:56:00 10° NNW visible
27 Feb ? 19:01:53 31° ENE 19:02:15 31° ENE 19:07:14 10° N visible
27 Feb ? 20:44:11 39° WNW 20:44:11 39° WNW 20:48:32 10° NNW visible
28 Feb ? 18:54:06 27° ENE 18:54:46 28° ENE 18:59:32 10° N visible
28 Feb ? 20:36:23 46° WNW 20:36:23 46° WNW 20:41:03 10° NNW visible
29 Feb ? 18:46:18 23° ENE 18:47:16 24° ENE 18:51:47 10° N visible
29 Feb ? 20:28:36 54° WNW 20:28:36 54° WNW 20:33:32 10° NNW visible
01 Mar ? 18:38:31 20° ENE 18:39:48 21° ENE 18:44:00 10° NNE visible
01 Mar ? 20:20:48 63° WNW 20:20:48 63° WNW 20:25:59 10° NNW visible
02 Mar ? 18:30:42 17° E 18:32:19 19° ENE 18:36:11 10° NNE visible
02 Mar ? 20:13:00 74° WNW 20:13:00 74° WNW 20:18:25 10° NNW visible
02 Mar ? 21:55:18 11° WNW 21:55:18 11° WNW 21:56:04 10° WNW visible
03 Mar ? 18:22:53 14° E 18:24:50 17° ENE 18:28:17 10° NNE visible
03 Mar ? 20:05:11 86° NW 20:05:11 86° NW 20:10:49 10° NNW visible
03 Mar ? 21:47:29 13° W 21:47:29 13° W 21:49:24 10° WNW visible
